Location: Gro�wechsungen
(51.4926°N, 10.6901°E)
Time: 06:47:55
(UTC+00:00)

CZ-2C R/B - Pass Details

Date: 18 September 2020
Orbit: 640 x 704 km, 98.4° (Epoch: 19 October)

Event Time Altitude Azimuth Distance (km) Brightness Sun altitude
Rises 19:57:49 0° 14° (NNE) 2,962 7.3 -23.2°
Reaches altitude 10° 20:00:02 10° 13° (NNE) 2,050 6.5 -23.5°
Maximum altitude 20:04:29 81° 287° (WNW) 663 3.6 -24.0°
Enters shadow 20:05:31 53° 210° (SSW) 802 4.0 -24.2°
